This demonstration page uses our WeatherBlox Daily Observations layout. Learn more.

Left ArrowRight Arrow

41.55636, -103.73856

Hourly Observations for December 14, 2020

Temp ( °F °C ) Dew Point ( °F °C ) Humidity (%) Winds ( mph kmh ) Pressure ( in mb ) Visibility ( mi km ) Precip ( " mm )
12:58 am 00:58 Mostly Cloudy 21 -6.2 10 -12.3 62 62 NNE 5 7 30.12 1020 10 16 0.00 0.00
1:58 am 01:58 Mostly Cloudy 23 -4.9 10 -12 58 58 SE 3 6 30.09 1019 10 16 0.00 0.00
2:58 am 02:58 Mostly Cloudy 20 -6.6 12 -11.3 70 70 E 7 11 30.09 1019 10 16 0.00 0.00
3:58 am 03:58 Mostly Cloudy 18 -7.7 11 -11.9 72 72 E 7 11 30.09 1019 10 16 0.00 0.00
4:58 am 04:58 Mostly Cloudy 19 -7.4 10 -12.5 67 67 ESE 7 11 30.06 1018 10 16 0.00 0.00
5:58 am 05:58 Mostly Cloudy 17 -8.4 9 -12.7 71 71 Calm 30.09 1019 10 16 0.00 0.00
6:58 am 06:58 Cloudy 17 -8.5 10 -12.4 74 74 S 5 7 30.10 1019 10 16 0.00 0.00
7:58 am 07:58 Mostly Cloudy 15 -9.7 10 -12.2 82 82 Calm 30.11 1020 10 16 0.00 0.00
8:58 am 08:58 Mostly Sunny 17 -8.5 11 -11.7 78 78 Calm 30.11 1020 10 16 0.00 0.00
9:58 am 09:58 Sunny 20 -6.9 13 -10.7 75 75 NE 6 9 30.09 1019 10 16 0.00 0.00
10:58 am 10:58 Sunny 21 -6.2 13 -10.3 73 73 NNE 3 6 30.09 1019 10 16 0.00 0.00
11:58 am 11:58 Sunny 21 -6.3 13 -10.6 72 72 NE 3 6 30.05 1018 10 16 0.00 0.00
12:58 pm 12:58 Sunny 22 -5.5 14 -9.8 72 72 NE 6 9 30.05 1018 10 16 0.00 0.00
1:56 pm 13:56 Sunny 23 -5.2 15 -9.3 73 73 ENE 6 9 30.03 1017 10 16 0.00 0.00
2:56 pm 14:56 Mostly Sunny 22 -5.4 16 -8.9 77 77 NE 7 11 30.05 1018 10 16 0.00 0.00
3:56 pm 15:56 Mostly Cloudy 22 -5.8 16 -8.9 79 79 Calm 30.09 1019 10 16 0.00 0.00
4:58 pm 16:58 Mostly Cloudy 20 -6.6 16 -8.9 84 84 Calm 30.11 1020 10 16 0.00 0.00
5:56 pm 17:56 Mostly Cloudy 18 -7.6 14 -9.8 84 84 W 3 6 30.12 1020 10 16 0.00 0.00
7:56 pm 19:56 Mostly Cloudy 20 -6.8 16 -8.8 86 86 WNW 5 7 30.14 1021 10 16 0.00 0.00
8:56 pm 20:56 Cloudy with Light Snow 20 -6.8 16 -9 85 85 WNW 8 13 30.15 1021 10 16 0.00 0.00
9:56 pm 21:56 Cloudy 20 -6.6 16 -8.8 85 85 Calm 30.14 1021 10 16 0.00 0.00
10:56 pm 22:56 Cloudy with Light Snow 20 -6.8 16 -8.7 87 87 NW 14 22 30.15 1021 10 16 0.00 0.00
11:56 pm 23:56 Cloudy with Light Snow 20 -6.9 17 -8.4 89 89 NW 12 19 30.15 1021 10 16 0.00 0.00

Powered by AerisWeather